GIA867 UAAA-WADD

Flight info

Callsign GIA867
Flight time N/A
Altitude 37000
Route PIGAL M610 RULAD/K0891S1070 A460 EXURU/K0883S1130 A460 XKC L888 SANLI/K0902S1160 L888 NIVUX/K0909S1130 L888 BIDRU/K0896S1190 A581 SAGAG/N0487F380 B218 VTN/N0485F390 R470 ROT R345 REP W1 TIA/N0482F400 M755 KISAN/K0893F400 M755 BITOD/K0898F390 M753 IPRIX/N0485F390 M753 ENREP N875 NIMIX/N0483F410 N875 PNK G464 KOLTA
Aircraft B772/H-SDE2E3FGHIJ5LORVWXY/LB1D1

Departure

Time 2026-05-07 20:09
Airport Almaty International Airport (UAAA)

Arrival

Time N/A
Airport Denpasar I Gusti Ngurah Rai International Airport (WADD)
Time Latitude Longitude Altitude Speed Heading
2026-05-07 19:37 43.34971 77.01307 2228 ft 0 kts 245°
2026-05-07 19:57 43.34972 77.01311 2227 ft 1 kts 245°
2026-05-07 19:58 43.34979 77.01332 2227 ft 3 kts 245°
2026-05-07 19:58 43.34989 77.01362 2227 ft 3 kts 235°
2026-05-07 19:58 43.35006 77.01383 2227 ft 3 kts 208°
2026-05-07 19:58 43.35028 77.01394 2226 ft 3 kts 186°
2026-05-07 19:59 43.35052 77.01392 2225 ft 3 kts 158°
2026-05-07 19:59 43.35066 77.01383 2225 ft 0 kts 156°
2026-05-07 20:01 43.35063 77.01385 2225 ft 0 kts 156°
2026-05-07 20:01 43.35054 77.01390 2225 ft 1 kts 156°
2026-05-07 20:01 43.35039 77.01399 2225 ft 2 kts 155°
2026-05-07 20:02 43.35017 77.01413 2226 ft 4 kts 155°
2026-05-07 20:02 43.34987 77.01433 2227 ft 5 kts 155°
2026-05-07 20:02 43.34948 77.01457 2229 ft 6 kts 155°
2026-05-07 20:02 43.34910 77.01481 2230 ft 0 kts 155°
2026-05-07 20:03 43.34909 77.01482 2230 ft 0 kts 155°
2026-05-07 20:04 43.34885 77.01496 2231 ft 7 kts 156°
2026-05-07 20:04 43.34827 77.01556 2232 ft 14 kts 115°
2026-05-07 20:04 43.34808 77.01731 2232 ft 22 kts 95°
2026-05-07 20:04 43.34797 77.01974 2231 ft 29 kts 93°
2026-05-07 20:05 43.34784 77.02280 2233 ft 34 kts 94°
2026-05-07 20:05 43.34796 77.02625 2236 ft 38 kts 71°
2026-05-07 20:05 43.34950 77.02957 2234 ft 44 kts 55°
2026-05-07 20:05 43.35134 77.03323 2235 ft 48 kts 55°
2026-05-07 20:06 43.35322 77.03707 2239 ft 47 kts 56°
2026-05-07 20:06 43.35506 77.04076 2242 ft 45 kts 55°
2026-05-07 20:06 43.35678 77.04420 2245 ft 42 kts 56°
2026-05-07 20:06 43.35841 77.04758 2246 ft 41 kts 56°
2026-05-07 20:07 43.35957 77.04997 2246 ft 17 kts 57°
2026-05-07 20:07 43.35926 77.05125 2249 ft 15 kts 150°
2026-05-07 20:07 43.35834 77.05164 2251 ft 14 kts 201°
2026-05-07 20:07 43.35764 77.05057 2250 ft 21 kts 235°
2026-05-07 20:08 43.35583 77.04697 2250 ft 79 kts 235°
2026-05-07 20:08 43.35138 77.03805 2244 ft 144 kts 234°
2026-05-07 20:08 43.34478 77.02461 2317 ft 187 kts 234°
2026-05-07 20:08 43.33748 77.00990 2827 ft 196 kts 239°
2026-05-07 20:09 43.33094 76.99356 3689 ft 191 kts 239°
2026-05-07 20:09 43.32376 76.97783 4011 ft 202 kts 236°
2026-05-07 20:09 43.31546 76.96090 4196 ft 219 kts 235°
2026-05-07 20:10 43.30621 76.91858 4605 ft 258 kts 281°
2026-05-07 20:10 43.31444 76.89595 4802 ft 275 kts 315°
2026-05-07 20:10 43.33081 76.88190 5362 ft 278 kts 336°
2026-05-07 20:10 43.34874 76.87160 5961 ft 279 kts 338°
2026-05-07 20:11 43.36695 76.86144 6516 ft 283 kts 338°
2026-05-07 20:11 43.38540 76.85117 7151 ft 285 kts 338°
2026-05-07 20:11 43.40385 76.84088 7726 ft 288 kts 338°
2026-05-07 20:11 43.42240 76.83059 8245 ft 289 kts 339°
2026-05-07 20:12 43.44218 76.82577 8781 ft 291 kts
2026-05-07 20:12 43.46177 76.83343 9315 ft 293 kts 30°
2026-05-07 20:12 43.47697 76.85152 9850 ft 296 kts 50°
2026-05-07 20:12 43.48930 76.87454 10403 ft 298 kts 54°
2026-05-07 20:13 43.50104 76.89858 10666 ft 313 kts 55°
2026-05-07 20:13 43.51342 76.92417 10860 ft 329 kts 55°
2026-05-07 20:13 43.52647 76.95108 11083 ft 345 kts 55°
2026-05-07 20:13 43.54003 76.97901 11297 ft 359 kts 55°
2026-05-07 20:14 43.55278 77.01009 11496 ft 375 kts 65°
2026-05-07 20:14 43.56107 77.04453 11802 ft 386 kts 77°
2026-05-07 20:14 43.56424 77.08112 12327 ft 390 kts 88°
2026-05-07 20:14 43.56221 77.11830 12879 ft 393 kts 99°
2026-05-07 20:15 43.55510 77.15510 13462 ft 397 kts 108°
2026-05-07 20:15 43.54656 77.18938 13963 ft 401 kts 109°
2026-05-07 20:15 43.53732 77.22611 14549 ft 406 kts 108°
2026-05-07 20:15 43.52815 77.26267 15147 ft 410 kts 108°
2026-05-07 20:16 43.51883 77.29991 15740 ft 413 kts 108°
2026-05-07 20:16 43.50857 77.33704 16365 ft 416 kts 114°
2026-05-07 20:16 43.49667 77.37354 16936 ft 420 kts 109°
2026-05-07 20:16 43.48935 77.41259 17464 ft 423 kts 97°
2026-05-07 20:17 43.48747 77.45301 18025 ft 426 kts 86°
2026-05-07 20:17 43.49104 77.49358 18569 ft 428 kts 77°
2026-05-07 20:17 43.49690 77.53392 19188 ft 429 kts 76°
2026-05-07 20:17 43.50285 77.57410 19797 ft 432 kts 76°
2026-05-07 20:18 43.50888 77.61491 20337 ft 436 kts 76°
2026-05-07 20:18 43.51497 77.65623 20902 ft 439 kts 77°
2026-05-07 20:18 43.52129 77.69919 21451 ft 443 kts 77°
2026-05-07 20:18 43.52747 77.74131 21983 ft 446 kts 77°
2026-05-07 20:19 43.53368 77.78378 22466 ft 451 kts 77°
2026-05-07 20:19 43.53983 77.82592 23001 ft 453 kts 77°
2026-05-07 20:19 43.54604 77.86862 23508 ft 456 kts 77°
2026-05-07 20:19 43.55228 77.91167 24002 ft 460 kts 77°
2026-05-07 20:20 43.55862 77.95548 24505 ft 463 kts 77°
2026-05-07 20:20 43.56486 77.99882 24985 ft 465 kts 77°
2026-05-07 20:20 43.57107 78.04275 25450 ft 468 kts 79°
2026-05-07 20:20 43.57390 78.08800 25857 ft 473 kts 88°
2026-05-07 20:21 43.57349 78.13336 26264 ft 476 kts 90°
2026-05-07 20:21 43.57270 78.17899 26689 ft 478 kts 90°
2026-05-07 20:21 43.57187 78.22500 27115 ft 480 kts 90°
2026-05-07 20:21 43.57101 78.27155 27472 ft 483 kts 90°
2026-05-07 20:22 43.57014 78.31817 27807 ft 486 kts 90°
2026-05-07 20:22 43.56926 78.36491 28154 ft 489 kts 90°
2026-05-07 20:22 43.56836 78.41192 28492 ft 492 kts 90°
2026-05-07 20:22 43.56744 78.45899 28824 ft 494 kts 90°
2026-05-07 20:23 43.56649 78.50623 29184 ft 495 kts 90°
2026-05-07 20:23 43.56553 78.55372 29520 ft 497 kts 90°
2026-05-07 20:23 43.56455 78.60132 29806 ft 500 kts 90°
2026-05-07 20:23 43.56352 78.64974 30152 ft 501 kts 90°
2026-05-07 20:24 43.56247 78.69884 30459 ft 503 kts 91°
2026-05-07 20:24 43.56139 78.74760 30783 ft 505 kts 91°
2026-05-07 20:24 43.56031 78.79598 31174 ft 505 kts 91°
2026-05-07 20:24 43.55922 78.84402 31612 ft 504 kts 91°
2026-05-07 20:25 43.55809 78.89254 32052 ft 503 kts 91°
2026-05-07 20:25 43.55696 78.94032 32467 ft 502 kts 91°
2026-05-07 20:25 43.55581 78.98837 32859 ft 502 kts 91°
2026-05-07 20:25 43.55463 79.03683 33231 ft 502 kts 91°
2026-05-07 20:26 43.55343 79.08490 33622 ft 501 kts 91°
2026-05-07 20:26 43.55221 79.13305 34067 ft 500 kts 91°
2026-05-07 20:26 43.55100 79.18014 34504 ft 498 kts 91°
2026-05-07 20:26 43.54976 79.22780 34916 ft 497 kts 91°
2026-05-07 20:27 43.54848 79.27586 35286 ft 496 kts 91°
2026-05-07 20:27 43.54720 79.32338 35636 ft 496 kts 91°
2026-05-07 20:27 43.54590 79.37091 35981 ft 495 kts 91°
2026-05-07 20:27 43.54458 79.41844 36344 ft 493 kts 91°
2026-05-07 20:28 43.54325 79.46558 36684 ft 492 kts 91°
2026-05-07 20:28 43.54190 79.51267 36973 ft 491 kts 91°
2026-05-07 20:28 43.54053 79.56002 37199 ft 492 kts 91°
2026-05-07 20:29 43.53774 79.65421 37208 ft 492 kts 91°
2026-05-07 20:29 43.53482 79.74995 37198 ft 492 kts 91°
2026-05-07 20:30 43.53188 79.84400 37230 ft 491 kts 91°
2026-05-07 20:30 43.52885 79.93846 37200 ft 492 kts 91°
2026-05-07 20:31 43.52576 80.03245 37219 ft 492 kts 91°
2026-05-07 20:31 43.52258 80.12689 37241 ft 492 kts 91°
2026-05-07 20:32 43.51933 80.22079 37229 ft 492 kts 91°
2026-05-07 20:32 43.51600 80.31484 37259 ft 491 kts 91°
2026-05-07 20:33 43.51259 80.40933 37240 ft 492 kts 91°
2026-05-07 20:33 43.50912 80.50289 36915 ft 492 kts 91°
2026-05-07 20:33 43.50735 80.54999 37200 ft 488 kts 91°
2026-05-07 20:34 43.50558 80.59656 37255 ft 491 kts 91°
2026-05-07 20:34 43.49302 80.69075 37273 ft 494 kts 109°
2026-05-07 20:35 43.46023 80.77519 37274 ft 498 kts 127°
2026-05-07 20:35 43.41232 80.84371 37326 ft 498 kts 137°
2026-05-07 20:36 43.36097 80.90878 37345 ft 498 kts 137°
2026-05-07 20:36 43.30948 80.97370 37382 ft 499 kts 137°
2026-05-07 20:37 43.25826 81.03805 37395 ft 498 kts 137°
2026-05-07 20:37 43.20697 81.10231 37398 ft 499 kts 137°
2026-05-07 20:38 43.15533 81.16682 37387 ft 498 kts 137°
2026-05-07 20:38 43.10405 81.23074 37408 ft 499 kts 137°
2026-05-07 20:39 43.05263 81.29466 37382 ft 498 kts 137°
2026-05-07 20:39 43.00092 81.35879 37346 ft 497 kts 137°
2026-05-07 20:40 42.94936 81.42258 37347 ft 499 kts 137°
2026-05-07 20:40 42.89784 81.48618 37378 ft 499 kts 137°
2026-05-07 20:41 42.84560 81.55051 37401 ft 497 kts 137°
2026-05-07 20:41 42.79409 81.61378 37478 ft 498 kts 137°
2026-05-07 20:42 42.74225 81.67731 37528 ft 498 kts 137°
2026-05-07 20:42 42.68998 81.74122 37537 ft 497 kts 137°
2026-05-07 20:43 42.63651 81.80141 37533 ft 498 kts 140°
2026-05-07 20:43 42.58237 81.86087 37534 ft 498 kts 140°
2026-05-07 20:44 42.52871 81.91988 37520 ft 498 kts 140°
2026-05-07 20:44 42.47463 81.97933 37512 ft 498 kts 140°
2026-05-07 20:45 42.42046 82.03880 37492 ft 498 kts 140°
2026-05-07 20:45 42.36636 82.09810 37501 ft 497 kts 140°
2026-05-07 20:46 42.31278 82.15671 37487 ft 497 kts 140°
2026-05-07 20:46 42.25848 82.21600 37471 ft 497 kts 139°
2026-05-07 20:47 42.20461 82.27471 37448 ft 497 kts 139°
2026-05-07 20:47 42.15037 82.33370 37411 ft 496 kts 139°
2026-05-07 20:48 42.09635 82.39233 37378 ft 496 kts 139°
2026-05-07 20:48 42.04258 82.45055 37356 ft 496 kts 139°
2026-05-07 20:49 41.98874 82.50872 37348 ft 494 kts 139°
2026-05-07 20:49 41.93493 82.56672 37331 ft 494 kts 139°
2026-05-07 20:50 41.88048 82.62529 37315 ft 493 kts 139°
2026-05-07 20:50 41.82560 82.68417 37291 ft 493 kts 140°
2026-05-07 20:51 41.77179 82.74179 37281 ft 495 kts 140°
2026-05-07 20:51 41.71787 82.79939 37250 ft 492 kts 139°
2026-05-07 20:52 41.66834 82.86285 37243 ft 489 kts 125°
2026-05-07 20:52 41.63058 82.93833 37233 ft 486 kts 120°
2026-05-07 20:53 41.59404 83.01415 37230 ft 484 kts 120°
2026-05-07 20:53 41.55731 83.09010 37211 ft 485 kts 120°
2026-05-07 20:54 41.52051 83.16590 37207 ft 485 kts 120°
2026-05-07 20:54 41.48369 83.24152 37201 ft 485 kts 120°
2026-05-07 20:55 41.44686 83.31697 37195 ft 486 kts 120°
2026-05-07 20:55 41.40976 83.39275 37187 ft 485 kts 120°
2026-05-07 20:56 41.37281 83.46804 37188 ft 485 kts 120°
2026-05-07 20:56 41.33576 83.54336 37192 ft 484 kts 120°
2026-05-07 20:57 41.29877 83.61835 37185 ft 484 kts 120°
2026-05-07 20:57 41.26135 83.69404 37173 ft 485 kts 121°
2026-05-07 20:58 41.22397 83.76946 37172 ft 486 kts 121°
2026-05-07 20:58 41.18662 83.84464 37173 ft 485 kts 121°
2026-05-07 20:59 41.14921 83.91974 37453 ft 485 kts 121°
2026-05-07 20:59 41.13058 83.95708 37201 ft 486 kts 121°
2026-05-07 20:59 41.11188 83.99450 37163 ft 480 kts 121°
2026-05-07 21:00 41.07477 84.06866 37160 ft 483 kts 121°
2026-05-07 21:00 41.05627 84.10555 36980 ft 481 kts 121°
2026-05-07 21:00 41.03773 84.14246 37156 ft 481 kts 121°
2026-05-07 21:01 41.00021 84.21710 37157 ft 486 kts 121°
2026-05-07 21:01 40.96276 84.29137 37155 ft 485 kts 121°
2026-05-07 21:02 40.92522 84.36566 37158 ft 485 kts 121°
2026-05-07 21:02 40.88731 84.44049 37150 ft 485 kts 121°
2026-05-07 21:03 40.84896 84.51601 37156 ft 486 kts 122°
2026-05-07 21:03 40.81138 84.58990 37156 ft 486 kts 122°
2026-05-07 21:04 40.77340 84.66438 37159 ft 486 kts 122°
2026-05-07 21:04 40.73492 84.73966 37157 ft 486 kts 122°
2026-05-07 21:05 40.69682 84.81402 37159 ft 486 kts 122°
2026-05-07 21:05 40.65899 84.88767 37158 ft 486 kts 122°
2026-05-07 21:06 40.62094 84.96156 37161 ft 487 kts 122°
2026-05-07 21:06 40.58278 85.03552 37160 ft 487 kts 122°
2026-05-07 21:07 40.54457 85.10938 37161 ft 487 kts 122°
2026-05-07 21:07 40.50644 85.18291 37161 ft 487 kts 122°
2026-05-07 21:08 40.46812 85.25664 37162 ft 486 kts 122°
2026-05-07 21:08 40.42980 85.33019 37164 ft 487 kts 122°
2026-05-07 21:09 40.39158 85.40338 37166 ft 487 kts 122°
2026-05-07 21:09 40.35346 85.47622 37169 ft 487 kts 122°
2026-05-07 21:10 40.31495 85.54961 37170 ft 487 kts 122°
2026-05-07 21:10 40.27645 85.62283 37167 ft 488 kts 122°
2026-05-07 21:11 40.23744 85.69683 37159 ft 487 kts 123°
2026-05-07 21:11 40.17936 85.80669 37158 ft 487 kts 123°
2026-05-07 21:12 40.14091 85.87921 37162 ft 487 kts 123°
2026-05-07 21:12 40.10189 85.95263 37166 ft 488 kts 123°
2026-05-07 21:13 40.06318 86.02535 37171 ft 488 kts 123°
2026-05-07 21:13 40.02405 86.09887 37179 ft 489 kts 123°
2026-05-07 21:14 39.98528 86.17156 37181 ft 488 kts 123°
2026-05-07 21:14 39.94625 86.24457 37181 ft 489 kts 123°
2026-05-07 21:15 39.90751 86.31685 37182 ft 489 kts 123°
2026-05-07 21:15 39.86750 86.39133 37174 ft 488 kts 123°
2026-05-07 21:16 39.82827 86.46420 37177 ft 490 kts 123°
2026-05-07 21:16 39.78929 86.53642 37175 ft 489 kts 123°
2026-05-07 21:17 39.75005 86.60898 37177 ft 489 kts 123°
2026-05-07 21:17 39.71045 86.68202 37176 ft 489 kts 124°
2026-05-07 21:18 39.67123 86.75420 37183 ft 489 kts 124°
2026-05-07 21:18 39.63183 86.82654 37183 ft 489 kts 124°
2026-05-07 21:19 39.59244 86.89871 37187 ft 490 kts 124°
2026-05-07 21:19 39.55270 86.97134 37186 ft 490 kts 124°
2026-05-07 21:20 39.51313 87.04348 37187 ft 490 kts 124°
2026-05-07 21:20 39.47366 87.11531 37190 ft 490 kts 124°
2026-05-07 21:21 39.43411 87.18711 37195 ft 490 kts 124°
2026-05-07 21:21 39.39447 87.25891 37181 ft 490 kts 124°
2026-05-07 21:22 39.35474 87.33071 37180 ft 492 kts 124°
2026-05-07 21:22 39.31477 87.40279 37181 ft 491 kts 124°
2026-05-07 21:23 39.27493 87.47446 37171 ft 491 kts 124°
2026-05-07 21:23 39.23480 87.54650 37168 ft 491 kts 124°
2026-05-07 21:24 39.19481 87.61812 37160 ft 491 kts 124°
2026-05-07 21:24 39.15450 87.69016 37149 ft 491 kts 125°
2026-05-07 21:25 39.11417 87.76206 37167 ft 492 kts 125°
2026-05-07 21:25 39.07392 87.83368 37152 ft 492 kts 125°
2026-05-07 21:26 39.03380 87.90489 37153 ft 494 kts 125°
2026-05-07 21:26 38.99341 87.97643 37149 ft 493 kts 125°
2026-05-07 21:27 38.95288 88.04806 37215 ft 495 kts 125°
2026-05-07 21:27 38.91224 88.11971 37235 ft 493 kts 125°
2026-05-07 21:28 38.87126 88.19182 37285 ft 491 kts 125°
2026-05-07 21:28 38.83056 88.26327 37345 ft 494 kts 125°
2026-05-07 21:29 38.79010 88.33414 37445 ft 495 kts 125°
2026-05-07 21:29 38.74920 88.40563 37491 ft 495 kts 126°
2026-05-07 21:30 38.70836 88.47684 37524 ft 492 kts 126°
2026-05-07 21:30 38.66783 88.54737 37534 ft 493 kts 126°
2026-05-07 21:31 38.62682 88.61858 37556 ft 496 kts 126°
2026-05-07 21:31 38.58572 88.68978 37521 ft 493 kts 126°
2026-05-07 21:32 38.54580 88.76139 37563 ft 495 kts 124°
2026-05-07 21:32 38.50685 88.83388 37577 ft 493 kts 124°
2026-05-07 21:33 38.46759 88.90659 37559 ft 495 kts 124°
2026-05-07 21:33 38.42847 88.97876 37614 ft 493 kts 125°
2026-05-07 21:34 38.38912 89.05110 37577 ft 496 kts 124°
2026-05-07 21:34 38.35006 89.12273 37544 ft 494 kts 125°
2026-05-07 21:35 38.31058 89.19496 37558 ft 496 kts 125°
2026-05-07 21:35 38.27109 89.26703 37543 ft 496 kts 125°
2026-05-07 21:36 38.23141 89.33928 37554 ft 494 kts 125°
2026-05-07 21:36 38.19176 89.41131 37576 ft 497 kts 125°
2026-05-07 21:37 38.15213 89.48317 37593 ft 496 kts 125°
2026-05-07 21:37 38.11235 89.55511 37594 ft 499 kts 125°
2026-05-07 21:38 38.07228 89.62743 37655 ft 496 kts 126°
2026-05-07 21:38 38.03165 89.70060 37650 ft 497 kts 126°
2026-05-07 21:39 37.99166 89.77244 37678 ft 497 kts 126°
2026-05-07 21:39 37.95157 89.84426 37678 ft 501 kts 127°
2026-05-07 21:40 37.91094 89.91689 37656 ft 501 kts 127°
2026-05-07 21:40 37.87014 89.98968 37657 ft 503 kts 127°
2026-05-07 21:41 37.82931 90.06237 37662 ft 503 kts 127°
2026-05-07 21:41 37.78869 90.13451 37647 ft 503 kts 127°
2026-05-07 21:42 37.74799 90.20683 37626 ft 503 kts 126°
2026-05-07 21:42 37.70809 90.27974 37612 ft 505 kts 126°
2026-05-07 21:43 37.66845 90.35210 37593 ft 503 kts 126°
2026-05-07 21:43 37.62808 90.42554 37582 ft 507 kts 126°
2026-05-07 21:44 37.58787 90.49850 37589 ft 507 kts 126°
2026-05-07 21:44 37.54747 90.57162 37592 ft 507 kts 127°
2026-05-07 21:45 37.50685 90.64497 37593 ft 509 kts 127°
2026-05-07 21:45 37.46561 90.71928 37587 ft 508 kts 127°
2026-05-07 21:46 37.42501 90.79224 37592 ft 510 kts 127°
2026-05-07 21:46 37.38439 90.86511 37588 ft 509 kts 127°
2026-05-07 21:47 37.34345 90.93838 37587 ft 509 kts 128°
2026-05-07 21:47 37.30264 91.01125 37586 ft 509 kts 128°
2026-05-07 21:48 37.26181 91.08401 37597 ft 509 kts 128°
2026-05-07 21:48 37.22060 91.15726 37582 ft 511 kts 128°
2026-05-07 21:49 37.17981 91.22964 37598 ft 509 kts 128°
2026-05-07 21:49 37.13888 91.30209 37607 ft 510 kts 128°
2026-05-07 21:50 37.09779 91.37468 37595 ft 510 kts 128°
2026-05-07 21:50 37.05681 91.44690 37594 ft 510 kts 128°
2026-05-07 21:51 37.01567 91.51926 37604 ft 509 kts 128°
2026-05-07 21:51 36.97453 91.59145 37593 ft 510 kts 128°
2026-05-07 21:52 36.93303 91.66414 37599 ft 509 kts 129°
2026-05-07 21:52 36.89136 91.73697 37625 ft 507 kts 129°
2026-05-07 21:53 36.84978 91.80945 37646 ft 508 kts 129°
2026-05-07 21:53 36.80839 91.88148 37677 ft 508 kts 129°
2026-05-07 21:54 36.76716 91.95307 37670 ft 508 kts 129°
2026-05-07 21:54 36.72574 92.02483 37657 ft 508 kts 129°
2026-05-07 21:55 36.68473 92.09573 37670 ft 509 kts 129°
2026-05-07 21:55 36.64292 92.16786 37644 ft 510 kts 129°
2026-05-07 21:56 36.60162 92.23899 37643 ft 509 kts 129°
2026-05-07 21:56 36.56004 92.31042 37674 ft 510 kts 129°
2026-05-07 21:57 36.51826 92.38206 37711 ft 508 kts 129°
2026-05-07 21:57 36.47677 92.45304 37730 ft 510 kts 129°
2026-05-07 21:58 36.43513 92.52413 37726 ft 509 kts 129°
2026-05-07 21:58 36.39343 92.59518 37687 ft 510 kts 129°
2026-05-07 21:59 36.35157 92.66634 37676 ft 511 kts 130°
2026-05-07 21:59 36.30925 92.73816 37652 ft 508 kts 130°
2026-05-07 22:00 36.26749 92.80885 37629 ft 511 kts 130°
2026-05-07 22:00 36.22557 92.87968 37642 ft 509 kts 130°
2026-05-07 22:01 36.18333 92.95091 37651 ft 511 kts 130°
2026-05-07 22:01 36.14151 93.02129 37672 ft 508 kts 129°
2026-05-07 22:02 36.09944 93.09193 37681 ft 510 kts 130°
2026-05-07 22:02 36.05751 93.16220 37703 ft 507 kts 130°
2026-05-07 22:03 36.01549 93.23246 37732 ft 509 kts 129°
2026-05-07 22:03 35.97370 93.30351 37716 ft 508 kts 128°
2026-05-07 22:04 35.93282 93.37492 37697 ft 509 kts 128°
2026-05-07 22:04 35.89171 93.44647 37685 ft 509 kts 128°
2026-05-07 22:05 35.85025 93.51839 37670 ft 510 kts 129°
2026-05-07 22:05 35.80916 93.58951 37865 ft 506 kts 129°
2026-05-07 22:06 35.78852 93.62515 37675 ft 510 kts 129°
2026-05-07 22:06 35.76788 93.66075 37653 ft 506 kts 129°
2026-05-07 22:06 35.72696 93.73125 37632 ft 506 kts 129°
2026-05-07 22:07 35.68586 93.80188 37642 ft 506 kts 129°
2026-05-07 22:07 35.64491 93.87212 37657 ft 505 kts 129°
2026-05-07 22:08 35.60379 93.94249 37664 ft 506 kts 129°
2026-05-07 22:08 35.56263 94.01280 37681 ft 507 kts 129°
2026-05-07 22:09 35.52149 94.08293 37683 ft 508 kts 129°
2026-05-07 22:09 35.48012 94.15331 37672 ft 506 kts 129°
2026-05-07 22:10 35.43890 94.22360 37670 ft 508 kts 129°
2026-05-07 22:10 35.39873 94.29462 37675 ft 507 kts 128°
2026-05-07 22:11 35.35844 94.36578 37664 ft 508 kts 128°
2026-05-07 22:11 35.31781 94.43729 37670 ft 509 kts 128°
2026-05-07 22:12 35.27737 94.50830 37669 ft 507 kts 128°
2026-05-07 22:12 35.23694 94.57911 37666 ft 508 kts 128°
2026-05-07 22:13 35.19633 94.65008 37664 ft 507 kts 129°
2026-05-07 22:13 35.15557 94.72117 37655 ft 507 kts 129°
2026-05-07 22:14 35.11524 94.79136 37651 ft 507 kts 129°
2026-05-07 22:14 35.07447 94.86214 37652 ft 508 kts 129°
2026-05-07 22:15 35.03386 94.93255 37655 ft 508 kts 129°
2026-05-07 22:15 34.99311 95.00304 37654 ft 505 kts 129°
2026-05-07 22:16 34.95251 95.07310 37640 ft 508 kts 129°
2026-05-07 22:16 34.91163 95.14355 37664 ft 507 kts 129°
2026-05-07 22:17 34.87052 95.21424 37645 ft 507 kts 129°
2026-05-07 22:17 34.82929 95.28498 37664 ft 508 kts 129°
2026-05-07 22:18 34.76804 95.38985 37665 ft 505 kts 129°
2026-05-07 22:19 34.72708 95.45976 37480 ft 508 kts 128°
2026-05-07 22:19 34.70676 95.49442 37679 ft 507 kts 129°
2026-05-07 22:19 34.68600 95.52977 37680 ft 511 kts 128°
2026-05-07 22:20 34.64469 95.60004 37664 ft 509 kts 128°
2026-05-07 22:20 34.60343 95.67008 37653 ft 510 kts 129°
2026-05-07 22:21 34.56221 95.73991 37653 ft 509 kts 129°
2026-05-07 22:21 34.52086 95.80984 37651 ft 509 kts 129°
2026-05-07 22:22 34.47958 95.87950 37655 ft 509 kts 129°
2026-05-07 22:22 34.43787 95.94974 37654 ft 510 kts 129°
2026-05-07 22:23 34.39647 96.01934 37655 ft 510 kts 129°
2026-05-07 22:23 34.35475 96.08934 37654 ft 509 kts 129°
2026-05-07 22:24 34.31347 96.15847 37641 ft 508 kts 129°
2026-05-07 22:24 34.27182 96.22807 37663 ft 509 kts 129°
2026-05-07 22:25 34.23037 96.29720 37608 ft 508 kts 129°
2026-05-07 22:25 34.18881 96.36639 37643 ft 508 kts 129°
2026-05-07 22:26 34.14742 96.43516 37647 ft 508 kts 129°
2026-05-07 22:26 34.10573 96.50431 37641 ft 507 kts 129°
2026-05-07 22:27 34.06493 96.57379 37651 ft 507 kts 128°
2026-05-07 22:27 34.02420 96.64342 37656 ft 506 kts 128°
2026-05-07 22:28 33.98372 96.71242 37659 ft 504 kts 128°
2026-05-07 22:28 33.94286 96.78189 37665 ft 504 kts 129°
2026-05-07 22:29 33.90199 96.85120 37648 ft 506 kts 129°
2026-05-07 22:29 33.86085 96.92085 37638 ft 505 kts 129°